| time (UTC) | temp F | wind direction | speed MPH | gust MPH | rain 1hr in | rain 24hr in | rain mn in | humidity % | barometer mb |
| 20260505174631 | 43 | 290 | 11.0 | 16.0 | 0.00 | 0.00 | 0.00 | 49 | 1012.5 |
| 20260505174126 | 43 | 277 | 7.0 | 13.0 | 0.00 | 0.00 | 0.00 | 51 | 1012.2 |
| 20260505173623 | 43 | 278 | 5.0 | 10.0 | 0.00 | 0.00 | 0.00 | 52 | 1012.4 |
| 20260505173114 | 43 | 19 | 5.0 | 11.0 | 0.00 | 0.00 | 0.00 | 52 | 1012.2 |
| 20260505172612 | 43 | 304 | 9.0 | 15.0 | 0.00 | 0.00 | 0.00 | 52 | 1012.5 |
| 20260505172108 | 43 | 357 | 6.0 | 11.0 | 0.00 | 0.00 | 0.00 | 50 | 1012.4 |
| 20260505171603 | 44 | 294 | 4.0 | 11.0 | 0.00 | 0.00 | 0.00 | 49 | 1012.4 |
| 20260505171101 | 44 | 232 | 8.0 | 11.0 | 0.00 | 0.00 | 0.00 | 47 | 1012.1 |
| 20260505170557 | 44 | 329 | 5.0 | 9.0 | 0.00 | 0.00 | 0.00 | 50 | 1012.0 |
| 20260505170054 | 44 | 336 | 9.0 | 14.0 | 0.00 | 0.00 | 0.00 | 50 | 1012.2 |
| 20260505165549 | 45 | 297 | 6.0 | 13.0 | 0.00 | 0.00 | 0.00 | 51 | 1012.4 |
| 20260505165045 | 42 | 307 | 3.0 | 9.0 | 0.00 | 0.00 | 0.00 | 55 | 1012.1 |
| 20260505164541 | 42 | 345 | 7.0 | 10.0 | 0.00 | 0.00 | 0.00 | 52 | 1012.4 |
| 20260505164038 | 42 | 292 | 5.0 | 9.0 | 0.00 | 0.00 | 0.00 | 51 | 1012.2 |
| 20260505163537 | 42 | 326 | 9.0 | 10.0 | 0.00 | 0.00 | 0.00 | 51 | 1012.4 |
| 20260505163033 | 42 | 221 | 5.0 | 9.0 | 0.00 | 0.00 | 0.00 | 53 | 1012.4 |
| 20260505162526 | 42 | 345 | 5.0 | 9.0 | 0.00 | 0.00 | 0.00 | 53 | 1012.1 |
| 20260505162024 | 43 | 335 | 3.0 | 9.0 | 0.00 | 0.00 | 0.00 | 55 | 1012.1 |
| 20260505161520 | 42 | 263 | 5.0 | 14.0 | 0.00 | 0.00 | 0.00 | 51 | 1012.2 |
| 20260505161017 | 43 | 277 | 9.0 | 14.0 | 0.00 | 0.00 | 0.00 | 50 | 1012.0 |
| 20260505160515 | 43 | 284 | 8.0 | 13.0 | 0.00 | 0.00 | 0.00 | 49 | 1012.2 |
| 20260505152951 | 42 | 297 | 5.0 | 9.0 | 0.00 | 0.00 | 0.00 | 55 | 1011.9 |
| 20260505152449 | 43 | 310 | 4.0 | 10.0 | 0.00 | 0.00 | 0.00 | 55 | 1011.7 |
| 20260505151944 | 43 | 305 | 7.0 | 8.0 | 0.00 | 0.00 | 0.00 | 58 | 1012.0 |
| 20260505151440 | 43 | 228 | 6.0 | 13.0 | 0.00 | 0.00 | 0.00 | 57 | 1011.8 |
| 20260505150937 | 43 | 309 | 7.0 | 10.0 | 0.00 | 0.00 | 0.00 | 57 | 1011.9 |
| 20260505150434 | 43 | 256 | 9.0 | 15.0 | 0.00 | 0.00 | 0.00 | 55 | 1011.9 |
| 20260505140404 | 40 | 306 | 3.0 | 6.0 | 0.00 | 0.00 | 0.00 | 60 | 1011.6 |
| 20260505124817 | 36 | 255 | 4.0 | 10.0 | 0.00 | 0.00 | 0.00 | 64 | 1011.1 |
| 20260505124314 | 37 | 239 | 5.0 | 7.0 | 0.00 | 0.00 | 0.00 | 66 | 1011.2 |
| 20260505123810 | 36 | 265 | 4.0 | 6.0 | 0.00 | 0.00 | 0.00 | 66 | 1010.9 |
| 20260505123307 | 36 | 272 | 4.0 | 6.0 | 0.00 | 0.00 | 0.00 | 67 | 1011.0 |
| 20260505122803 | 36 | 293 | 4.0 | 4.0 | 0.00 | 0.00 | 0.00 | 67 | 1010.8 |
| 20260505122301 | 36 | 308 | 3.0 | 6.0 | 0.00 | 0.00 | 0.00 | 67 | 1010.9 |
| 20260505121757 | 35 | 249 | 1.0 | 2.0 | 0.00 | 0.00 | 0.00 | 67 | 1010.9 |
| 20260505121254 | 35 | 261 | 2.0 | 3.0 | 0.00 | 0.00 | 0.00 | 66 | 1010.6 |
| 20260505120750 | 35 | 302 | 4.0 | 6.0 | 0.00 | 0.00 | 0.00 | 67 | 1010.7 |
| 20260505120247 | 35 | 239 | 0.0 | 1.0 | 0.00 | 0.00 | 0.00 | 67 | 1010.6 |
| 20260505115745 | 35 | 314 | 2.0 | 4.0 | 0.00 | 0.00 | 0.00 | 67 | 1010.6 |
| 20260505115243 | 34 | 332 | 2.0 | 3.0 | 0.00 | 0.00 | 0.00 | 68 | 1010.5 |
| 20260505114740 | 34 | 246 | 1.0 | 2.0 | 0.00 | 0.00 | 0.00 | 67 | 1010.2 |
| 20260505114236 | 33 | 246 | 1.0 | 3.0 | 0.00 | 0.00 | 0.00 | 68 | 1010.2 |
| 20260505113733 | 33 | 303 | 2.0 | 3.0 | 0.00 | 0.00 | 0.00 | 70 | 1010.3 |
| 20260505113230 | 32 | 240 | 0.0 | 1.0 | 0.00 | 0.00 | 0.00 | 72 | 1010.1 |
| 20260505112726 | 32 | 282 | 2.0 | 2.0 | 0.00 | 0.00 | 0.00 | 73 | 1010.4 |
| 20260505112224 | 32 | 262 | 1.0 | 3.0 | 0.00 | 0.00 | 0.00 | 74 | 1010.1 |
| 20260505111723 | 32 | 223 | 0.0 | 2.0 | 0.00 | 0.00 | 0.00 | 74 | 1010.3 |
| 20260505111219 | 32 | 247 | 1.0 | 2.0 | 0.00 | 0.00 | 0.00 | 75 | 1010.2 |
| 20260505110715 | 32 | 229 | 1.0 | 3.0 | 0.00 | 0.00 | 0.00 | 75 | 1010.1 |
| 20260505110213 | 32 | 239 | 2.0 | 3.0 | 0.00 | 0.00 | 0.00 | 74 | 1010.2 |
| 20260505102148 | 33 | 275 | 0.0 | 1.0 | 0.00 | 0.00 | 0.00 | 71 | 1010.0 |
| 20260505101647 | 34 | 281 | 1.0 | 4.0 | 0.00 | 0.00 | 0.00 | 71 | 1009.9 |
| 20260505101143 | 33 | 307 | 2.0 | 2.0 | 0.00 | 0.00 | 0.00 | 72 | 1009.7 |
| 20260505100639 | 34 | 272 | 0.0 | 3.0 | 0.00 | 0.00 | 0.00 | 70 | 1010.1 |
| 20260505100136 | 34 | 295 | 1.0 | 1.0 | 0.00 | 0.00 | 0.00 | 71 | 1009.9 |
| 20260505095632 | 34 | 341 | 3.0 | 3.0 | 0.00 | 0.00 | 0.00 | 70 | 1010.1 |
| 20260505095130 | 35 | 266 | 1.0 | 4.0 | 0.00 | 0.00 | 0.00 | 69 | 1010.2 |
| 20260505094626 | 35 | 29 | 1.0 | 3.0 | 0.00 | 0.00 | 0.00 | 69 | 1010.1 |
| 20260505094122 | 35 | 22 | 1.0 | 3.0 | 0.00 | 0.00 | 0.00 | 69 | 1010.1 |
| 20260505093618 | 35 | 285 | 2.0 | 2.0 | 0.00 | 0.00 | 0.00 | 69 | 1010.0 |
| 20260505093116 | 35 | 330 | 2.0 | 6.0 | 0.00 | 0.00 | 0.00 | 69 | 1010.1 |
| 20260505092613 | 35 | 323 | 1.0 | 6.0 | 0.00 | 0.00 | 0.00 | 69 | 1010.0 |
| 20260505092112 | 35 | 326 | 2.0 | 2.0 | 0.00 | 0.00 | 0.00 | 68 | 1009.9 |
| 20260505091608 | 36 | 18 | 3.0 | 6.0 | 0.00 | 0.00 | 0.00 | 67 | 1010.1 |
| 20260505091106 | 36 | 357 | 3.0 | 6.0 | 0.00 | 0.00 | 0.00 | 67 | 1010.0 |
| 20260505090604 | 36 | 348 | 5.0 | 8.0 | 0.00 | 0.00 | 0.00 | 66 | 1010.0 |
| 20260505085559 | 36 | 9 | 3.0 | 7.0 | 0.00 | 0.00 | 0.00 | 70 | 1010.0 |
| 20260505085057 | 36 | 13 | 1.0 | 6.0 | 0.00 | 0.00 | 0.00 | 72 | 1009.7 |
| 20260505084555 | 36 | 30 | 2.0 | 6.0 | 0.00 | 0.00 | 0.00 | 73 | 1009.9 |
| 20260505084053 | 37 | 76 | 2.0 | 7.0 | 0.00 | 0.00 | 0.00 | 73 | 1009.7 |
| 20260505083549 | 37 | 342 | 2.0 | 3.0 | 0.00 | 0.00 | 0.00 | 74 | 1009.7 |
| 20260505083046 | 37 | 29 | 1.0 | 4.0 | 0.00 | 0.00 | 0.00 | 75 | 1009.5 |
| 20260505082542 | 36 | 5 | 4.0 | 6.0 | 0.00 | 0.00 | 0.00 | 76 | 1009.6 |
| 20260505082039 | 36 | 305 | 0.0 | 3.0 | 0.00 | 0.00 | 0.00 | 77 | 1009.6 |
| 20260505081535 | 37 | 313 | 2.0 | 3.0 | 0.00 | 0.00 | 0.00 | 76 | 1009.4 |
| 20260505081032 | 37 | 314 | 5.0 | 7.0 | 0.00 | 0.00 | 0.00 | 75 | 1009.4 |
| 20260505080529 | 37 | 314 | 4.0 | 6.0 | 0.00 | 0.00 | 0.00 | 74 | 1009.5 |
| 20260505080026 | 37 | 324 | 5.0 | 7.0 | 0.00 | 0.00 | 0.00 | 73 | 1009.6 |
| 20260505075521 | 38 | 331 | 3.0 | 8.0 | 0.00 | 0.00 | 0.00 | 73 | 1009.6 |
| 20260505075018 | 38 | 73 | 1.0 | 7.0 | 0.00 | 0.00 | 0.00 | 73 | 1009.5 |
| 20260505074516 | 38 | 359 | 4.0 | 7.0 | 0.00 | 0.00 | 0.00 | 72 | 1009.4 |
| 20260505074013 | 38 | 335 | 2.0 | 2.0 | 0.00 | 0.00 | 0.00 | 72 | 1009.4 |
| 20260505073510 | 39 | 53 | 4.0 | 7.0 | 0.00 | 0.00 | 0.00 | 72 | 1009.4 |
| 20260505073008 | 39 | 343 | 3.0 | 4.0 | 0.00 | 0.00 | 0.00 | 71 | 1009.4 |
| 20260505072504 | 39 | 312 | 5.0 | 7.0 | 0.00 | 0.00 | 0.00 | 71 | 1009.5 |
| 20260505072000 | 39 | 5 | 5.0 | 7.0 | 0.00 | 0.00 | 0.00 | 70 | 1009.4 |
| 20260505071455 | 39 | 359 | 2.0 | 4.0 | 0.00 | 0.00 | 0.00 | 70 | 1009.4 |
| 20260505070954 | 39 | 358 | 1.0 | 2.0 | 0.00 | 0.00 | 0.00 | 68 | 1009.2 |
| 20260505070450 | 39 | 336 | 4.0 | 7.0 | 0.00 | 0.00 | 0.00 | 67 | 1009.4 |
| 20260505065946 | 40 | 10 | 4.0 | 4.0 | 0.00 | 0.00 | 0.00 | 67 | 1009.2 |
| 20260505065443 | 40 | 334 | 4.0 | 8.0 | 0.00 | 0.00 | 0.00 | 66 | 1009.3 |
| 20260505064939 | 40 | 355 | 4.0 | 6.0 | 0.00 | 0.00 | 0.00 | 67 | 1009.3 |
| 20260505064436 | 40 | 341 | 3.0 | 8.0 | 0.00 | 0.00 | 0.00 | 66 | 1009.2 |
| 20260505063935 | 40 | 316 | 3.0 | 4.0 | 0.00 | 0.00 | 0.00 | 67 | 1009.2 |
| 20260505063431 | 40 | 256 | 4.0 | 8.0 | 0.00 | 0.00 | 0.00 | 66 | 1009.1 |
| 20260505062928 | 40 | 332 | 3.0 | 6.0 | 0.00 | 0.00 | 0.00 | 67 | 1009.1 |
| 20260505062425 | 40 | 268 | 1.0 | 2.0 | 0.00 | 0.00 | 0.00 | 68 | 1009.3 |
| 20260505061921 | 40 | 302 | 3.0 | 3.0 | 0.00 | 0.00 | 0.00 | 68 | 1009.1 |
| 20260505061420 | 40 | 287 | 1.0 | 4.0 | 0.00 | 0.00 | 0.00 | 68 | 1009.3 |
| 20260505060917 | 40 | 276 | 2.0 | 3.0 | 0.00 | 0.00 | 0.00 | 69 | 1009.0 |
| 20260505060414 | 40 | 255 | 2.0 | 7.0 | 0.00 | 0.00 | 0.00 | 68 | 1009.0 |
| 20260505055910 | 40 | 284 | 1.0 | 7.0 | 0.00 | 0.00 | 0.00 | 68 | 1008.9 |
| 20260505055406 | 40 | 324 | 3.0 | 7.0 | 0.00 | 0.00 | 0.00 | 68 | 1008.9 |
| 20260505054903 | 40 | 280 | 5.0 | 6.0 | 0.00 | 0.00 | 0.00 | 69 | 1008.9 |
| 20260505054400 | 40 | 342 | 2.0 | 6.0 | 0.00 | 0.00 | 0.00 | 70 | 1008.9 |
| 20260505053859 | 40 | 259 | 2.0 | 3.0 | 0.00 | 0.00 | 0.00 | 71 | 1008.9 |
| 20260505053355 | 39 | 315 | 5.0 | 6.0 | 0.00 | 0.00 | 0.00 | 71 | 1009.0 |
| 20260505052852 | 39 | 293 | 2.0 | 2.0 | 0.00 | 0.00 | 0.00 | 71 | 1009.0 |
| 20260505052349 | 39 | 244 | 1.0 | 3.0 | 0.00 | 0.00 | 0.00 | 72 | 1008.9 |
| 20260505051846 | 39 | 279 | 2.0 | 3.0 | 0.00 | 0.00 | 0.00 | 71 | 1008.9 |
| 20260505051343 | 39 | 245 | 2.0 | 2.0 | 0.00 | 0.00 | 0.00 | 71 | 1008.8 |
| 20260505050841 | 39 | 232 | 1.0 | 2.0 | 0.00 | 0.00 | 0.00 | 71 | 1008.6 |
| 20260505050340 | 39 | 243 | 1.0 | 3.0 | 0.00 | 0.00 | 0.00 | 70 | 1008.7 |
| 20260505041307 | 40 | 332 | 3.0 | 6.0 | 0.00 | 0.00 | 0.00 | 68 | 1008.7 |
| 20260505040804 | 40 | 282 | 0.0 | 2.0 | 0.00 | 0.00 | 0.00 | 68 | 1008.6 |
| 20260505040302 | 41 | 2 | 1.0 | 3.0 | 0.00 | 0.00 | 0.00 | 67 | 1008.6 |
| 20260505035758 | 41 | 337 | 3.0 | 7.0 | 0.00 | 0.00 | 0.00 | 65 | 1008.4 |
| 20260505035254 | 41 | 320 | 3.0 | 4.0 | 0.00 | 0.00 | 0.00 | 65 | 1008.8 |
| 20260505034751 | 41 | 342 | 3.0 | 7.0 | 0.00 | 0.00 | 0.00 | 64 | 1008.5 |
| 20260505034248 | 42 | 9 | 2.0 | 8.0 | 0.00 | 0.00 | 0.00 | 64 | 1008.5 |
| 20260505033744 | 42 | 333 | 4.0 | 9.0 | 0.00 | 0.00 | 0.00 | 63 | 1008.5 |
| 20260505033242 | 42 | 358 | 5.0 | 7.0 | 0.00 | 0.00 | 0.00 | 62 | 1008.6 |
| 20260505032740 | 42 | 18 | 4.0 | 7.0 | 0.00 | 0.00 | 0.00 | 61 | 1008.6 |
| 20260505032236 | 42 | 359 | 4.0 | 8.0 | 0.00 | 0.00 | 0.00 | 57 | 1008.5 |
| 20260505031733 | 43 | 23 | 2.0 | 4.0 | 0.00 | 0.00 | 0.00 | 55 | 1008.4 |
| 20260505031229 | 43 | 314 | 3.0 | 4.0 | 0.00 | 0.00 | 0.00 | 53 | 1008.1 |
| 20260505030726 | 43 | 286 | 4.0 | 6.0 | 0.00 | 0.00 | 0.00 | 53 | 1008.3 |
| 20260505030222 | 43 | 293 | 2.0 | 9.0 | 0.00 | 0.00 | 0.00 | 53 | 1008.2 |
| 20260505025718 | 43 | 304 | 4.0 | 7.0 | 0.00 | 0.00 | 0.00 | 52 | 1008.2 |
| 20260505025217 | 43 | 345 | 4.0 | 7.0 | 0.00 | 0.00 | 0.00 | 51 | 1007.8 |
| 20260505024715 | 43 | 337 | 4.0 | 6.0 | 0.00 | 0.00 | 0.00 | 51 | 1007.9 |
| 20260505024211 | 44 | 338 | 6.0 | 7.0 | 0.00 | 0.00 | 0.00 | 50 | 1007.9 |
| 20260505023709 | 44 | 306 | 5.0 | 7.0 | 0.00 | 0.00 | 0.00 | 50 | 1007.8 |
| 20260505023206 | 44 | 311 | 6.0 | 13.0 | 0.00 | 0.00 | 0.00 | 49 | 1007.9 |
| 20260505022704 | 44 | 336 | 5.0 | 6.0 | 0.00 | 0.00 | 0.00 | 49 | 1007.7 |
| 20260505022200 | 44 | 267 | 3.0 | 8.0 | 0.00 | 0.00 | 0.00 | 49 | 1007.8 |
| 20260505021657 | 44 | 307 | 7.0 | 11.0 | 0.00 | 0.00 | 0.00 | 49 | 1007.8 |
| 20260505021154 | 43 | 304 | 6.0 | 8.0 | 0.00 | 0.00 | 0.00 | 49 | 1007.6 |
| 20260505020649 | 44 | 315 | 4.0 | 4.0 | 0.00 | 0.00 | 0.00 | 51 | 1007.4 |
| 20260505020145 | 44 | 314 | 4.0 | 10.0 | 0.00 | 0.00 | 0.00 | 50 | 1007.5 |
| 20260505015643 | 44 | 350 | 5.0 | 9.0 | 0.00 | 0.00 | 0.00 | 50 | 1007.4 |
| 20260505015139 | 44 | 296 | 4.0 | 6.0 | 0.00 | 0.00 | 0.00 | 50 | 1007.2 |
| 20260505014636 | 44 | 274 | 4.0 | 10.0 | 0.00 | 0.00 | 0.00 | 50 | 1007.1 |
| 20260505014133 | 44 | 305 | 8.0 | 14.0 | 0.00 | 0.00 | 0.00 | 50 | 1007.1 |
| 20260505013631 | 44 | 298 | 9.0 | 11.0 | 0.00 | 0.00 | 0.00 | 51 | 1007.5 |
| 20260505013128 | 44 | 266 | 2.0 | 8.0 | 0.00 | 0.00 | 0.00 | 51 | 1007.1 |
| 20260505012626 | 44 | 265 | 5.0 | 8.0 | 0.00 | 0.00 | 0.00 | 51 | 1006.9 |
| 20260505012122 | 45 | 300 | 6.0 | 8.0 | 0.00 | 0.00 | 0.00 | 51 | 1006.9 |
| 20260505011618 | 45 | 12 | 4.0 | 8.0 | 0.00 | 0.00 | 0.00 | 50 | 1006.8 |
| 20260505011115 | 45 | 352 | 5.0 | 7.0 | 0.00 | 0.00 | 0.00 | 51 | 1006.8 |
| 20260505010611 | 45 | 284 | 11.0 | 16.0 | 0.00 | 0.00 | 0.00 | 49 | 1006.7 |
| 20260505010108 | 46 | 294 | 5.0 | 15.0 | 0.00 | 0.00 | 0.00 | 50 | 1006.7 |
| 20260505005604 | 46 | 1 | 6.0 | 13.0 | 0.00 | 0.00 | 0.00 | 49 | 1006.5 |
| 20260505005101 | 46 | 338 | 9.0 | 13.0 | 0.00 | 0.00 | 0.00 | 49 | 1006.5 |
| 20260505004558 | 46 | 312 | 3.0 | 14.0 | 0.00 | 0.00 | 0.00 | 51 | 1006.6 |
| 20260505004055 | 46 | 276 | 4.0 | 13.0 | 0.00 | 0.00 | 0.00 | 52 | 1006.4 |
| 20260505003552 | 47 | 327 | 4.0 | 7.0 | 0.00 | 0.00 | 0.00 | 51 | 1006.5 |
| 20260505003050 | 47 | 302 | 8.0 | 11.0 | 0.00 | 0.00 | 0.00 | 50 | 1006.3 |
| 20260505002549 | 47 | 334 | 6.0 | 15.0 | 0.00 | 0.00 | 0.00 | 50 | 1006.4 |
| 20260505002043 | 48 | 285 | 6.0 | 10.0 | 0.00 | 0.00 | 0.00 | 52 | 1006.5 |
| 20260505001540 | 47 | 49 | 6.0 | 13.0 | 0.00 | 0.00 | 0.00 | 51 | 1006.5 |
| 20260505001037 | 47 | 319 | 5.0 | 7.0 | 0.00 | 0.00 | 0.00 | 53 | 1006.5 |
| 20260505000535 | 47 | 337 | 6.0 | 13.0 | 0.00 | 0.00 | 0.00 | 50 | 1006.2 |
| 20260505000032 | 47 | 284 | 3.0 | 9.0 | 0.00 | 0.00 | 0.00 | 51 | 1006.3 |
| 20260504235529 | 48 | 293 | 3.0 | 11.0 | 0.00 | 0.00 | 0.00 | 49 | 1006.5 |
| 20260504235025 | 48 | 319 | 6.0 | 14.0 | 0.00 | 0.00 | 0.00 | 50 | 1006.3 |
| 20260504234522 | 47 | 307 | 9.0 | 17.0 | 0.00 | 0.00 | 0.00 | 50 | 1006.3 |
| 20260504234019 | 48 | 328 | 11.0 | 14.0 | 0.00 | 0.00 | 0.00 | 48 | 1006.4 |
| 20260504233515 | 47 | 273 | 8.0 | 17.0 | 0.00 | 0.00 | 0.00 | 49 | 1006.4 |
| 20260504233012 | 47 | 310 | 6.0 | 16.0 | 0.00 | 0.00 | 0.00 | 48 | 1006.3 |
| 20260504232509 | 47 | 273 | 10.0 | 16.0 | 0.00 | 0.00 | 0.00 | 48 | 1006.3 |
| 20260504232007 | 47 | 245 | 9.0 | 11.0 | 0.00 | 0.00 | 0.00 | 50 | 1006.3 |
| 20260504231503 | 47 | 321 | 11.0 | 14.0 | 0.00 | 0.00 | 0.00 | 49 | 1006.1 |
| 20260504230959 | 47 | 258 | 6.0 | 9.0 | 0.00 | 0.00 | 0.00 | 49 | 1006.2 |
| 20260504230455 | 47 | 337 | 8.0 | 9.0 | 0.00 | 0.00 | 0.00 | 49 | 1006.3 |
| 20260504225954 | 47 | 275 | 9.0 | 10.0 | 0.00 | 0.00 | 0.00 | 47 | 1006.2 |
| 20260504225451 | 47 | 281 | 11.0 | 16.0 | 0.00 | 0.00 | 0.00 | 46 | 1006.2 |
| 20260504224948 | 47 | 302 | 11.0 | 17.0 | 0.00 | 0.00 | 0.00 | 47 | 1006.3 |
| 20260504224444 | 47 | 271 | 7.0 | 11.0 | 0.00 | 0.00 | 0.00 | 47 | 1006.3 |
| 20260504223941 | 47 | 338 | 7.0 | 9.0 | 0.00 | 0.00 | 0.00 | 46 | 1006.3 |
| 20260504223437 | 47 | 320 | 10.0 | 14.0 | 0.00 | 0.00 | 0.00 | 47 | 1006.4 |
| 20260504222933 | 47 | 338 | 10.0 | 13.0 | 0.00 | 0.00 | 0.00 | 47 | 1006.3 |
| 20260504222431 | 47 | 297 | 8.0 | 13.0 | 0.00 | 0.00 | 0.00 | 47 | 1006.0 |
| 20260504221929 | 47 | 329 | 7.0 | 16.0 | 0.00 | 0.00 | 0.00 | 48 | 1006.1 |
| 20260504221425 | 47 | 32 | 6.0 | 10.0 | 0.00 | 0.00 | 0.00 | 48 | 1006.0 |
| 20260504220922 | 47 | 297 | 6.0 | 9.0 | 0.00 | 0.00 | 0.00 | 50 | 1006.1 |
| 20260504220419 | 47 | 306 | 11.0 | 16.0 | 0.00 | 0.00 | 0.00 | 48 | 1006.1 |
| 20260504215916 | 47 | 296 | 11.0 | 16.0 | 0.00 | 0.00 | 0.00 | 47 | 1006.1 |
| 20260504215413 | 48 | 280 | 8.0 | 10.0 | 0.00 | 0.00 | 0.00 | 46 | 1006.1 |
| 20260504214909 | 47 | 273 | 10.0 | 19.0 | 0.00 | 0.00 | 0.00 | 50 | 1006.0 |
| 20260504214406 | 46 | 299 | 11.0 | 13.0 | 0.00 | 0.00 | 0.00 | 51 | 1006.2 |
| 20260504213903 | 46 | 300 | 11.0 | 16.0 | 0.00 | 0.00 | 0.00 | 51 | 1006.0 |
| 20260504213358 | 46 | 318 | 9.0 | 13.0 | 0.00 | 0.00 | 0.00 | 52 | 1006.0 |
| 20260504212856 | 46 | 256 | 10.0 | 14.0 | 0.00 | 0.00 | 0.00 | 53 | 1005.9 |
| 20260504212351 | 46 | 307 | 9.0 | 13.0 | 0.00 | 0.00 | 0.00 | 52 | 1006.3 |
| 20260504211850 | 46 | 285 | 6.0 | 11.0 | 0.00 | 0.00 | 0.00 | 56 | 1005.9 |
| 20260504211346 | 46 | 7 | 5.0 | 13.0 | 0.00 | 0.00 | 0.00 | 53 | 1005.9 |
| 20260504210843 | 46 | 295 | 6.0 | 15.0 | 0.00 | 0.00 | 0.00 | 52 | 1006.0 |
| 20260504210340 | 47 | 295 | 6.0 | 17.0 | 0.00 | 0.00 | 0.00 | 53 | 1005.9 |
| 20260504205837 | 47 | 308 | 6.0 | 16.0 | 0.00 | 0.00 | 0.00 | 52 | 1005.6 |
| 20260504205335 | 47 | 294 | 7.0 | 13.0 | 0.00 | 0.00 | 0.00 | 53 | 1005.8 |
| 20260504204833 | 48 | 314 | 9.0 | 21.0 | 0.00 | 0.00 | 0.00 | 52 | 1005.5 |
| 20260504204331 | 47 | 304 | 12.0 | 17.0 | 0.00 | 0.00 | 0.00 | 53 | 1005.5 |
| 20260504203830 | 49 | 310 | 10.0 | 16.0 | 0.00 | 0.00 | 0.00 | 52 | 1005.3 |
| 20260504203327 | 48 | 320 | 7.0 | 16.0 | 0.00 | 0.00 | 0.00 | 52 | 1005.3 |
| 20260504202822 | 49 | 277 | 8.0 | 23.0 | 0.00 | 0.00 | 0.00 | 51 | 1005.3 |
| 20260504202320 | 49 | 299 | 11.0 | 17.0 | 0.00 | 0.00 | 0.00 | 51 | 1005.2 |
| 20260504201816 | 49 | 287 | 13.0 | 17.0 | 0.00 | 0.00 | 0.00 | 49 | 1005.1 |
| 20260504201314 | 49 | 291 | 6.0 | 15.0 | 0.00 | 0.00 | 0.00 | 50 | 1005.3 |
| 20260504200811 | 48 | 20 | 11.0 | 17.0 | 0.00 | 0.00 | 0.00 | 50 | 1005.1 |
| 20260504200308 | 49 | 273 | 14.0 | 18.0 | 0.00 | 0.00 | 0.00 | 48 | 1005.0 |
| 20260504195803 | 49 | 275 | 3.0 | 11.0 | 0.00 | 0.00 | 0.00 | 54 | 1004.7 |
| 20260504195300 | 49 | 288 | 11.0 | 16.0 | 0.00 | 0.00 | 0.00 | 50 | 1005.1 |
| 20260504194757 | 49 | 254 | 5.0 | 16.0 | 0.00 | 0.00 | 0.00 | 54 | 1004.7 |
| 20260504194253 | 50 | 240 | 10.0 | 19.0 | 0.00 | 0.00 | 0.00 | 50 | 1005.0 |
| 20260504193749 | 49 | 316 | 10.0 | 13.0 | 0.00 | 0.00 | 0.00 | 51 | 1004.7 |
| 20260504193247 | 48 | 298 | 6.0 | 16.0 | 0.00 | 0.00 | 0.00 | 54 | 1005.0 |
| 20260504192745 | 48 | 285 | 12.0 | 19.0 | 0.00 | 0.00 | 0.00 | 51 | 1004.9 |
| 20260504192243 | 48 | 21 | 9.0 | 23.0 | 0.00 | 0.00 | 0.00 | 52 | 1004.5 |
| 20260504191741 | 48 | 316 | 6.0 | 11.0 | 0.00 | 0.00 | 0.00 | 52 | 1004.5 |
| 20260504191238 | 48 | 287 | 11.0 | 18.0 | 0.00 | 0.00 | 0.00 | 50 | 1004.5 |
| 20260504190733 | 50 | 341 | 10.0 | 13.0 | 0.00 | 0.00 | 0.00 | 51 | 1004.3 |
| 20260504190230 | 50 | 262 | 11.0 | 21.0 | 0.00 | 0.00 | 0.00 | 51 | 1004.2 |
| 20260504185726 | 50 | 266 | 6.0 | 10.0 | 0.00 | 0.00 | 0.00 | 54 | 1004.1 |
| 20260504185223 | 49 | 346 | 10.0 | 15.0 | 0.00 | 0.00 | 0.00 | 50 | 1004.1 |
| 20260504184719 | 49 | 333 | 13.0 | 21.0 | 0.00 | 0.00 | 0.00 | 50 | 1004.2 |
| 20260504184215 | 48 | 271 | 9.0 | 14.0 | 0.00 | 0.00 | 0.00 | 52 | 1004.1 |
| 20260504183711 | 49 | 261 | 5.0 | 22.0 | 0.00 | 0.00 | 0.00 | 54 | 1004.1 |
| 20260504183208 | 50 | 277 | 11.0 | 15.0 | 0.00 | 0.00 | 0.00 | 51 | 1004.1 |
| 20260504182706 | 48 | 291 | 17.0 | 19.0 | 0.00 | 0.00 | 0.00 | 52 | 1003.9 |
| 20260504182204 | 49 | 329 | 7.0 | 16.0 | 0.00 | 0.00 | 0.00 | 54 | 1003.8 |
| 20260504181701 | 49 | 190 | 4.0 | 14.0 | 0.00 | 0.00 | 0.00 | 54 | 1003.9 |
| 20260504181158 | 49 | 286 | 9.0 | 15.0 | 0.00 | 0.00 | 0.00 | 53 | 1003.6 |
| 20260504180657 | 50 | 308 | 9.0 | 17.0 | 0.00 | 0.00 | 0.00 | 51 | 1003.7 |
| 20260504180155 | 48 | 262 | 10.0 | 16.0 | 0.00 | 0.00 | 0.00 | 55 | 1003.5 |
| 20260504175652 | 49 | 302 | 12.0 | 21.0 | 0.00 | 0.00 | 0.00 | 54 | 1003.4 |
| 20260504175149 | 49 | 298 | 15.0 | 24.0 | 0.00 | 0.00 | 0.00 | 53 | 1003.4 |